CFG1XL EDDF-LGSA

Flight info

Callsign CFG1XL
Flight time N/A
Altitude 35000
Route CINDY2D CINDY Z74 LAMPU DCT NOMBO Y161 MAH DCT VAVOR DCT RADIZ DCT GORPA DCT EVTON DCT AKIKA DCT MAVAR DCT BITLA DCT ATV UP169 MANOK L612 RUSOS
Aircraft A320/M-SDE2FGHIJ1RWXY/LB1

Departure

Time 2026-05-01 13:21
Airport Frankfurt Main Airport (EDDF)

Arrival

Time N/A
Airport Chania International Airport (LGSA)
Time Latitude Longitude Altitude Speed Heading
2026-05-01 12:48 50.04120 8.55822 357 ft 0 kts 160°
2026-05-01 13:13 50.04119 8.55822 352 ft 1 kts 160°
2026-05-01 13:14 50.04087 8.55841 352 ft 5 kts 160°
2026-05-01 13:14 50.04052 8.55861 351 ft 6 kts 160°
2026-05-01 13:14 50.04016 8.55814 351 ft 8 kts 248°
2026-05-01 13:14 50.03997 8.55733 349 ft 7 kts 250°
2026-05-01 13:15 50.03980 8.55662 354 ft 6 kts 250°
2026-05-01 13:15 50.03957 8.55568 351 ft 16 kts 250°
2026-05-01 13:15 50.03906 8.55358 357 ft 22 kts 250°
2026-05-01 13:15 50.03857 8.55149 351 ft 20 kts 249°
2026-05-01 13:16 50.03810 8.54955 349 ft 18 kts 249°
2026-05-01 13:16 50.03766 8.54772 351 ft 17 kts 249°
2026-05-01 13:16 50.03726 8.54601 346 ft 17 kts 251°
2026-05-01 13:17 50.03612 8.54125 347 ft 14 kts 249°
2026-05-01 13:17 50.03579 8.53991 338 ft 13 kts 249°
2026-05-01 13:18 50.03523 8.53753 340 ft 11 kts 251°
2026-05-01 13:18 50.03498 8.53649 337 ft 10 kts 250°
2026-05-01 13:18 50.03476 8.53557 336 ft 9 kts 249°
2026-05-01 13:18 50.03456 8.53476 334 ft 7 kts 249°
2026-05-01 13:19 50.03437 8.53391 337 ft 12 kts 250°
2026-05-01 13:19 50.03394 8.53217 337 ft 20 kts 249°
2026-05-01 13:19 50.03306 8.52844 334 ft 16 kts 247°
2026-05-01 13:20 50.03269 8.52702 332 ft 12 kts 245°
2026-05-01 13:20 50.03224 8.52624 335 ft 9 kts 214°
2026-05-01 13:20 50.03172 8.52596 333 ft 7 kts 189°
2026-05-01 13:21 50.02826 8.52606 331 ft 79 kts 179°
2026-05-01 13:21 50.02068 8.52603 332 ft 137 kts 179°
2026-05-01 13:21 50.00958 8.52635 439 ft 172 kts 174°
2026-05-01 13:21 49.99731 8.52667 1100 ft 177 kts 175°
2026-05-01 13:22 49.98502 8.52672 1891 ft 176 kts 174°
2026-05-01 13:22 49.97273 8.52849 2411 ft 183 kts 157°
2026-05-01 13:22 49.96193 8.53999 2654 ft 200 kts 126°
2026-05-01 13:22 49.95451 8.55949 2996 ft 217 kts 118°
2026-05-01 13:23 49.94716 8.58003 3714 ft 219 kts 118°
2026-05-01 13:23 49.94107 8.60176 4495 ft 224 kts 103°
2026-05-01 13:23 49.93889 8.62697 4845 ft 246 kts 105°
2026-05-01 13:23 49.93097 8.65077 5386 ft 254 kts 130°
2026-05-01 13:24 49.91881 8.67096 6128 ft 259 kts 137°
2026-05-01 13:24 49.90552 8.69011 6957 ft 262 kts 138°
2026-05-01 13:24 49.89203 8.70948 7713 ft 266 kts 137°
2026-05-01 13:25 49.86524 8.75019 9194 ft 273 kts 135°
2026-05-01 13:25 49.85202 8.77137 9961 ft 276 kts 134°
2026-05-01 13:25 49.83865 8.79325 10626 ft 283 kts 134°
2026-05-01 13:25 49.82467 8.81633 10831 ft 306 kts 133°
2026-05-01 13:26 49.80961 8.84137 11005 ft 327 kts 133°
2026-05-01 13:26 49.79387 8.86760 11498 ft 336 kts 133°
2026-05-01 13:26 49.77785 8.89427 12142 ft 340 kts 133°
2026-05-01 13:26 49.76174 8.92100 12787 ft 344 kts 133°
2026-05-01 13:27 49.74521 8.94827 13461 ft 347 kts 133°
2026-05-01 13:27 49.72862 8.97561 14131 ft 350 kts 132°
2026-05-01 13:27 49.69495 9.03108 15265 ft 357 kts 132°
2026-05-01 13:28 49.66081 9.08732 16470 ft 360 kts 132°
2026-05-01 13:28 49.64357 9.11566 17029 ft 364 kts 132°
2026-05-01 13:29 49.60856 9.17312 18150 ft 370 kts 133°
2026-05-01 13:29 49.57304 9.23124 19089 ft 378 kts 132°
2026-05-01 13:30 49.49970 9.35082 21126 ft 388 kts 131°
2026-05-01 13:31 49.46222 9.41178 21961 ft 397 kts 131°
2026-05-01 13:31 49.40438 9.50546 23216 ft 408 kts 131°
2026-05-01 13:32 49.36506 9.56904 24012 ft 413 kts 131°
2026-05-01 13:33 49.30526 9.66542 24992 ft 422 kts 131°
2026-05-01 13:33 49.26447 9.73081 25636 ft 426 kts 133°
2026-05-01 13:34 49.22327 9.79672 26273 ft 431 kts 132°
2026-05-01 13:34 49.18163 9.86324 26837 ft 436 kts 131°
2026-05-01 13:35 49.13945 9.93033 27422 ft 440 kts 133°
2026-05-01 13:35 49.11818 9.96408 27704 ft 442 kts 131°
2026-05-01 13:35 49.07535 10.03203 28245 ft 446 kts 132°
2026-05-01 13:36 49.05377 10.06620 28506 ft 448 kts 132°
2026-05-01 13:36 49.03205 10.10056 28776 ft 450 kts 132°
2026-05-01 13:36 48.98834 10.16946 29278 ft 454 kts 131°
2026-05-01 13:37 48.96632 10.20408 29500 ft 456 kts 132°
2026-05-01 13:37 48.94419 10.23885 29737 ft 458 kts 132°
2026-05-01 13:37 48.92197 10.27379 29964 ft 460 kts 132°
2026-05-01 13:37 48.89973 10.30871 30192 ft 461 kts 132°
2026-05-01 13:38 48.85500 10.37880 30662 ft 462 kts 131°
2026-05-01 13:38 48.83266 10.41371 30921 ft 461 kts 132°
2026-05-01 13:38 48.81028 10.44879 31168 ft 461 kts 131°
2026-05-01 13:39 48.78819 10.48391 31425 ft 460 kts 131°
2026-05-01 13:39 48.76619 10.51921 31682 ft 460 kts 131°
2026-05-01 13:39 48.74459 10.55400 31927 ft 459 kts 131°
2026-05-01 13:39 48.72243 10.58969 32188 ft 458 kts 131°
2026-05-01 13:40 48.70056 10.62478 32448 ft 458 kts 131°
2026-05-01 13:40 48.67867 10.65969 32692 ft 457 kts 131°
2026-05-01 13:40 48.65674 10.69452 32945 ft 457 kts 131°
2026-05-01 13:40 48.63479 10.72930 33191 ft 456 kts 131°
2026-05-01 13:41 48.61288 10.76395 33434 ft 456 kts 131°
2026-05-01 13:41 48.59128 10.79810 33682 ft 455 kts 131°
2026-05-01 13:41 48.56945 10.83273 33927 ft 455 kts 131°
2026-05-01 13:41 48.54774 10.86746 34165 ft 454 kts 130°
2026-05-01 13:42 48.52614 10.90212 34423 ft 453 kts 130°
2026-05-01 13:42 48.50455 10.93672 34649 ft 452 kts 130°
2026-05-01 13:42 48.48298 10.97124 34856 ft 452 kts 130°
2026-05-01 13:42 48.46128 11.00555 35065 ft 452 kts 131°
2026-05-01 13:43 48.43945 11.03965 35251 ft 452 kts 131°
2026-05-01 13:43 48.39560 11.10749 35354 ft 452 kts 131°
2026-05-01 13:44 48.35178 11.17523 35347 ft 451 kts 131°
2026-05-01 13:44 48.30802 11.24298 35354 ft 451 kts 131°
2026-05-01 13:45 48.26543 11.31192 35332 ft 448 kts 123°
2026-05-01 13:45 48.23313 11.39109 35333 ft 445 kts 117°
2026-05-01 13:46 48.20213 11.47135 35332 ft 445 kts 117°
2026-05-01 13:46 48.17093 11.55146 35335 ft 445 kts 117°
2026-05-01 13:47 48.13979 11.63144 35362 ft 445 kts 117°
2026-05-01 13:47 48.10867 11.71136 35360 ft 444 kts 117°
2026-05-01 13:48 48.07770 11.79063 35355 ft 444 kts 117°
2026-05-01 13:48 48.04642 11.87029 35353 ft 444 kts 117°
2026-05-01 13:49 48.01510 11.94978 35349 ft 444 kts 117°
2026-05-01 13:49 47.98901 12.01584 35370 ft 444 kts 117°
2026-05-01 13:50 47.95759 12.09508 35363 ft 443 kts 117°
2026-05-01 13:50 47.92113 12.16946 35352 ft 449 kts 131°
2026-05-01 13:51 47.87370 12.23065 35335 ft 452 kts 136°
2026-05-01 13:51 47.82549 12.29084 35326 ft 452 kts 136°
2026-05-01 13:52 47.77740 12.35090 35321 ft 452 kts 136°
2026-05-01 13:52 47.72918 12.41096 35329 ft 452 kts 136°
2026-05-01 13:53 47.68089 12.47096 35321 ft 452 kts 136°
2026-05-01 13:53 47.61055 12.56368 35315 ft 448 kts 129°
2026-05-01 13:54 47.56829 12.63158 35342 ft 448 kts 129°
2026-05-01 13:54 47.52608 12.69879 35330 ft 449 kts 129°
2026-05-01 13:55 47.48346 12.76636 35326 ft 449 kts 129°
2026-05-01 13:55 47.44089 12.83386 35322 ft 449 kts 128°
2026-05-01 13:56 47.39836 12.90138 35320 ft 449 kts 129°
2026-05-01 13:56 47.35572 12.96869 35332 ft 449 kts 129°
2026-05-01 13:57 47.31298 13.03600 35337 ft 449 kts 128°
2026-05-01 13:57 47.27024 13.10314 35324 ft 449 kts 128°
2026-05-01 13:58 47.22735 13.17021 35332 ft 450 kts 128°
2026-05-01 13:58 47.18451 13.23715 35318 ft 449 kts 128°
2026-05-01 13:59 47.14197 13.30356 35347 ft 449 kts 128°
2026-05-01 13:59 47.09895 13.37049 35341 ft 451 kts 128°
2026-05-01 14:00 47.05590 13.43715 35341 ft 450 kts 128°
2026-05-01 14:00 47.01280 13.50377 35336 ft 449 kts 128°
2026-05-01 14:01 46.96967 13.57031 35335 ft 449 kts 128°
2026-05-01 14:01 46.92661 13.63668 35354 ft 449 kts 128°
2026-05-01 14:02 46.88352 13.70292 35339 ft 450 kts 128°
2026-05-01 14:02 46.84031 13.76913 35336 ft 450 kts 128°
2026-05-01 14:03 46.79697 13.83524 35344 ft 451 kts 128°
2026-05-01 14:03 46.75378 13.90096 35344 ft 451 kts 128°
2026-05-01 14:04 46.71033 13.96694 35373 ft 451 kts 127°
2026-05-01 14:04 46.66699 14.03282 35358 ft 451 kts 128°
2026-05-01 14:05 46.62354 14.09859 35339 ft 450 kts 128°
2026-05-01 14:05 46.58004 14.16404 35334 ft 450 kts 128°
2026-05-01 14:06 46.53654 14.22943 35328 ft 450 kts 128°
2026-05-01 14:06 46.49308 14.29483 35353 ft 450 kts 127°
2026-05-01 14:07 46.44952 14.36014 35337 ft 450 kts 128°
2026-05-01 14:08 46.38406 14.45783 35330 ft 450 kts 128°
2026-05-01 14:08 46.34041 14.52289 35317 ft 449 kts 128°
2026-05-01 14:09 46.29670 14.58781 35350 ft 451 kts 127°
2026-05-01 14:09 46.25293 14.65267 35347 ft 451 kts 127°
2026-05-01 14:10 46.20908 14.71741 35346 ft 450 kts 127°
2026-05-01 14:10 46.16518 14.78202 35341 ft 450 kts 128°
2026-05-01 14:11 46.12162 14.84607 35338 ft 450 kts 127°
2026-05-01 14:11 46.05587 14.94256 35353 ft 450 kts 127°
2026-05-01 14:12 46.01196 15.00678 35348 ft 450 kts 127°
2026-05-01 14:12 45.96796 15.07094 35340 ft 450 kts 127°
2026-05-01 14:13 45.93145 15.12407 35342 ft 450 kts 127°
2026-05-01 14:13 45.87998 15.19869 35362 ft 450 kts 127°
2026-05-01 14:14 45.83597 15.26244 35348 ft 449 kts 127°
2026-05-01 14:14 45.79192 15.32598 35343 ft 449 kts 127°
2026-05-01 14:15 45.74828 15.38981 35341 ft 447 kts 126°
2026-05-01 14:15 45.70631 15.45527 35337 ft 446 kts 124°
2026-05-01 14:16 45.66468 15.52114 35338 ft 446 kts 125°
2026-05-01 14:16 45.62280 15.58615 35338 ft 447 kts 125°
2026-05-01 14:17 45.58038 15.65121 35340 ft 448 kts 125°
2026-05-01 14:17 45.53791 15.71626 35341 ft 448 kts 125°
2026-05-01 14:18 45.49553 15.78123 35370 ft 447 kts 125°
2026-05-01 14:18 45.46030 15.83513 35375 ft 447 kts 125°
2026-05-01 14:19 45.41066 15.91085 35366 ft 447 kts 125°
2026-05-01 14:19 45.36822 15.97542 35359 ft 446 kts 125°
2026-05-01 14:20 45.30461 16.07195 35383 ft 446 kts 125°
2026-05-01 14:21 45.26214 16.13611 35369 ft 445 kts 125°
2026-05-01 14:21 45.21997 16.19972 35356 ft 445 kts 125°
2026-05-01 14:22 45.15632 16.29547 35351 ft 445 kts 125°
2026-05-01 14:22 45.11382 16.35921 35359 ft 445 kts 125°
2026-05-01 14:23 45.07130 16.42283 35349 ft 444 kts 125°
2026-05-01 14:23 45.02878 16.48624 35337 ft 444 kts 125°
2026-05-01 14:24 44.98626 16.54954 35334 ft 444 kts 125°
2026-05-01 14:24 44.94374 16.61284 35342 ft 444 kts 125°
2026-05-01 14:25 44.90117 16.67600 35369 ft 444 kts 125°
2026-05-01 14:25 44.85853 16.73908 35354 ft 444 kts 125°
2026-05-01 14:26 44.79451 16.83344 35337 ft 444 kts 126°
2026-05-01 14:27 44.75208 16.89579 35333 ft 444 kts 126°
2026-05-01 14:27 44.70926 16.95851 35348 ft 445 kts 127°
2026-05-01 14:28 44.64085 17.04820 35327 ft 451 kts 131°
2026-05-01 14:28 44.59377 17.10636 35320 ft 451 kts 130°
2026-05-01 14:29 44.54710 17.16498 35307 ft 450 kts 130°
2026-05-01 14:30 44.45433 17.28288 35307 ft 451 kts 130°
2026-05-01 14:31 44.38429 17.37130 35295 ft 453 kts 131°
2026-05-01 14:31 44.33737 17.43020 35292 ft 454 kts 131°
2026-05-01 14:32 44.29025 17.48940 35302 ft 456 kts 131°
2026-05-01 14:32 44.24327 17.54829 35288 ft 457 kts 131°
2026-05-01 14:33 44.19582 17.60748 35289 ft 458 kts 132°
2026-05-01 14:33 44.14830 17.66664 35282 ft 459 kts 132°
2026-05-01 14:34 44.10073 17.72592 35299 ft 460 kts 133°
2026-05-01 14:34 44.05300 17.78524 35280 ft 460 kts 133°
2026-05-01 14:35 44.00511 17.84451 35275 ft 461 kts 133°
2026-05-01 14:35 43.96533 17.89368 35278 ft 461 kts 133°
2026-05-01 14:36 43.91732 17.95279 35290 ft 461 kts 134°
2026-05-01 14:36 43.86924 18.01194 35279 ft 462 kts 134°
2026-05-01 14:37 43.82110 18.07107 35270 ft 463 kts 134°
2026-05-01 14:37 43.77285 18.13015 35270 ft 463 kts 134°
2026-05-01 14:38 43.72456 18.18919 35269 ft 463 kts 134°
2026-05-01 14:38 43.67613 18.24827 35277 ft 464 kts 134°
2026-05-01 14:39 43.62766 18.30728 35252 ft 464 kts 134°
2026-05-01 14:39 43.57914 18.36611 35242 ft 465 kts 134°
2026-05-01 14:40 43.53050 18.42499 35239 ft 465 kts 135°
2026-05-01 14:40 43.48185 18.48379 35265 ft 466 kts 135°
2026-05-01 14:41 43.43301 18.54276 35217 ft 468 kts 135°
2026-05-01 14:41 43.38399 18.60184 35217 ft 469 kts 136°
2026-05-01 14:42 43.33477 18.66096 35223 ft 470 kts 136°
2026-05-01 14:42 43.28546 18.71993 35219 ft 471 kts 136°
2026-05-01 14:43 43.23610 18.77893 35243 ft 471 kts 135°
2026-05-01 14:43 43.18695 18.83752 35224 ft 472 kts 136°
2026-05-01 14:44 43.13732 18.89653 35230 ft 472 kts 136°
2026-05-01 14:44 43.06293 18.98485 35230 ft 472 kts 136°
2026-05-01 14:45 42.98833 19.07300 35210 ft 473 kts 137°
2026-05-01 14:46 42.93855 19.13183 35231 ft 473 kts 136°
2026-05-01 14:46 42.86354 19.22008 35208 ft 474 kts 137°
2026-05-01 14:47 42.81347 19.27875 35207 ft 475 kts 138°
2026-05-01 14:48 42.73819 19.36689 35178 ft 477 kts 138°
2026-05-01 14:48 42.66280 19.45461 35179 ft 477 kts 138°
2026-05-01 14:49 42.56191 19.57180 35189 ft 477 kts 137°
2026-05-01 14:50 42.45918 19.68675 35193 ft 480 kts 141°
2026-05-01 14:51 42.38061 19.77073 35203 ft 479 kts 141°
2026-05-01 14:52 42.30262 19.85521 35200 ft 479 kts 141°
2026-05-01 14:53 42.22436 19.93983 35183 ft 482 kts 141°
2026-05-01 14:53 42.17182 19.99636 35193 ft 483 kts 142°
2026-05-01 14:54 42.11912 20.05274 35189 ft 484 kts 142°
2026-05-01 14:54 42.06644 20.10913 35210 ft 482 kts 141°
2026-05-01 14:55 42.01390 20.16551 35182 ft 483 kts 142°
2026-05-01 14:55 41.96140 20.22160 35200 ft 482 kts 143°
2026-05-01 14:56 41.90880 20.27747 35195 ft 481 kts 143°
2026-05-01 14:56 41.85634 20.33320 35199 ft 480 kts 142°
2026-05-01 14:57 41.80390 20.38877 35205 ft 480 kts 143°
2026-05-01 14:57 41.72560 20.47133 35178 ft 480 kts 143°
2026-05-01 14:58 41.67315 20.52652 35193 ft 480 kts 143°
2026-05-01 14:58 41.62069 20.58192 35183 ft 480 kts 143°
2026-05-01 14:59 41.56835 20.63737 35188 ft 480 kts 143°
2026-05-01 14:59 41.51593 20.69263 35166 ft 480 kts 144°
2026-05-01 15:00 41.43716 20.77546 35171 ft 481 kts 144°
2026-05-01 15:01 41.38452 20.83060 35180 ft 481 kts 144°
2026-05-01 15:01 41.33184 20.88575 35181 ft 482 kts 144°
2026-05-01 15:02 41.27911 20.94076 35162 ft 482 kts 145°
2026-05-01 15:02 41.22629 20.99571 35164 ft 482 kts 145°
2026-05-01 15:03 41.17374 21.05029 35168 ft 483 kts 145°
2026-05-01 15:03 41.12078 21.10533 35164 ft 483 kts 145°
2026-05-01 15:04 41.06778 21.16017 35177 ft 484 kts 146°
2026-05-01 15:04 41.01462 21.21499 35149 ft 484 kts 146°
2026-05-01 15:05 40.96143 21.26982 35153 ft 485 kts 146°
2026-05-01 15:05 40.90807 21.32464 35164 ft 486 kts 146°
2026-05-01 15:06 40.85418 21.37839 35168 ft 485 kts 149°
2026-05-01 15:06 40.79803 21.42744 35179 ft 483 kts 152°
2026-05-01 15:07 40.74087 21.47439 35186 ft 483 kts 152°
2026-05-01 15:07 40.68412 21.52199 35186 ft 484 kts 151°
2026-05-01 15:08 40.62774 21.57053 35197 ft 484 kts 151°
2026-05-01 15:08 40.57134 21.61917 35201 ft 484 kts 151°
2026-05-01 15:09 40.51489 21.66744 35186 ft 484 kts 152°
2026-05-01 15:09 40.45873 21.71514 35184 ft 484 kts 152°
2026-05-01 15:10 40.40213 21.76309 35186 ft 484 kts 152°
2026-05-01 15:10 40.31707 21.83504 35179 ft 485 kts 152°
2026-05-01 15:11 40.23195 21.90698 35162 ft 486 kts 153°
2026-05-01 15:12 40.17503 21.95486 35172 ft 487 kts 153°
2026-05-01 15:12 40.08946 22.02668 35188 ft 487 kts 153°
2026-05-01 15:14 39.94650 22.14629 35189 ft 489 kts 153°
2026-05-01 15:14 39.86087 22.21768 35204 ft 490 kts 153°
2026-05-01 15:15 39.74594 22.31321 35179 ft 491 kts 154°
2026-05-01 15:16 39.63055 22.40866 35184 ft 492 kts 154°
2026-05-01 15:18 39.48610 22.52752 35168 ft 492 kts 155°
2026-05-01 15:19 39.37067 22.62209 35192 ft 493 kts 155°
2026-05-01 15:19 39.28357 22.69327 35166 ft 494 kts 155°
2026-05-01 15:20 39.20579 22.75673 35192 ft 495 kts 156°
2026-05-01 15:21 39.14781 22.80371 35197 ft 495 kts 156°
2026-05-01 15:21 39.08948 22.85092 35203 ft 496 kts 156°
2026-05-01 15:22 39.00194 22.92178 35190 ft 496 kts 157°
2026-05-01 15:22 38.94340 22.96907 35194 ft 497 kts 157°
2026-05-01 15:23 38.88488 23.01619 35192 ft 497 kts 157°
2026-05-01 15:23 38.82627 23.06332 35196 ft 497 kts 157°
2026-05-01 15:24 38.76768 23.11038 35140 ft 497 kts 157°
2026-05-01 15:24 38.70905 23.15723 35197 ft 497 kts 157°
2026-05-01 15:25 38.65032 23.20415 35205 ft 497 kts 158°
2026-05-01 15:25 38.59160 23.25095 35200 ft 497 kts 158°
2026-05-01 15:26 38.53306 23.29758 35200 ft 496 kts 158°
2026-05-01 15:26 38.47450 23.34417 35164 ft 496 kts 158°
2026-05-01 15:27 38.41590 23.39060 35171 ft 495 kts 158°
2026-05-01 15:28 38.32803 23.46002 35175 ft 495 kts 158°
2026-05-01 15:28 38.26956 23.50608 35177 ft 495 kts 158°
2026-05-01 15:29 38.18176 23.57523 35164 ft 494 kts 158°
2026-05-01 15:30 38.06482 23.66703 35160 ft 494 kts 159°
2026-05-01 15:31 37.88825 23.79768 35148 ft 474 kts 172°
2026-05-01 15:32 37.82577 23.81483 35152 ft 451 kts 185°
2026-05-01 15:32 37.76338 23.82464 35152 ft 452 kts 185°
2026-05-01 15:34 37.57624 23.85485 35134 ft 452 kts 184°